Location: Blue Pit
(43.1414°N, 93.2208°W)
Time: 01:34:12
(UTC+00:00)

COSMO-SKYMED 1 - Pass Details

Date: 18 November 2025
Orbit: 579 x 581 km, 97.9° (Epoch: 08 December)

Event Time Altitude Azimuth Distance (km) Brightness Sun altitude
Exits shadow 23:52:09 14° 46° (NE) 1,627 4.2 -12.1°
Maximum altitude 23:54:46 26° 95° (E) 1,164 3.4 -12.6°
Drops below altitude 10° 23:58:12 10° 153° (SSE) 1,889 4.9 -13.2°
Sets 00:00:37 0° 166° (SSE) 2,782 5.9 -13.6°
